Flag for Australia Weather past 2 weeks in Ballarat, Victoria, Australia

Now
51 °F

Cool.


Feels Like: 49 °F
Forecast: 42 / 57 °F
Wind: 7 mph from Southwest

Location: Sheoaks Aws

Current Time: Oct 1, 2014 at 7:16:07 PM

Latest Report: Oct 1, 2014 at 6:00 PM


Visibility: N/A

Pressure: 30.25 "Hg

Humidity: 61%

Dew point: 38 °F

Location of BallaratLocation

Historic Weather in Ballarat — Graph

°F

Ballarat temperature yesterday

Maximum temperature yesterday: 66 °F (at 2:00 PM)
Minimum temperature yesterday: 42 °F (at 11:00 PM)
Average temperature yesterday: 53 °F

Past Weeks' High & Low Weather Summary

 TemperatureHumidityPressure
High83 °F (Sep 28, 3:00 PM)100% (Sep 21, 3:00 AM)30.48 "Hg (Sep 21, 3:00 AM)
Low33 °F (Sep 22, 3:00 AM)22% (Sep 28, 3:00 PM)29.62 "Hg (Sep 28, 5:00 PM)
Average54 °F72%30.10 "Hg
* Reported Sep 16 6:00 PM — Oct 1 6:00 PM, Ballarat, Weather by CustomWeather, © 2014

Note: Actual official high and low records may vary slightly from our data, if they occured in-between our weather recording intervals... More about our weather records

Advertising

Ballarat weather history for previous 24 hours

 ConditionsComfort  
Time TempWeatherWind HumidityBarometerVisibility
6:00 PM
Oct 1
51 °FCool.7 mph61%30.25 "HgN/A
5:00 PM53 °FCool.8 mph61%30.24 "HgN/A
3:00 PM53 °FCool.12 mph60%30.23 "HgN/A
2:00 PM54 °FCool.15 mph57%30.24 "HgN/A
12:00 PM51 °FCool.13 mph66%30.24 "HgN/A
11:00 AM53 °FCool.13 mph65%30.24 "HgN/A
9:00 AM49 °FCool.12 mph74%30.22 "HgN/A
8:00 AM46 °FCool.10 mph77%30.19 "HgN/A
6:00 AM41 °FQuite cool.9 mph85%30.13 "HgN/A
5:00 AM41 °FQuite cool.13 mph84%30.10 "HgN/A
3:00 AM41 °FQuite cool.8 mph85%30.06 "HgN/A
2:00 AM41 °FQuite cool.13 mph80%30.04 "HgN/A
12:00 AM42 °FQuite cool.17 mph80%30.00 "HgN/A
11:00 PM
Sep 30
42 °FQuite cool.15 mph85%29.97 "HgN/A
9:00 PM45 °FCool.18 mph68%29.92 "HgN/A
8:00 PM46 °FCool.13 mph76%29.90 "HgN/A
Weather by CustomWeather, © 2014

See weather overviewHow to use our weather pages